This is the latest recevied weather packets stored in our database for station/object KG4LKY-5. If no packets are shown the sender has not sent any weather packets the latest 1 day(s).
| Time | Temp. | Humidity | Pressure | Rain* | Wind** | Luminosity | Snow |
|---|---|---|---|---|---|---|---|
| 1778031203 | 18.33° C | 52% | 1009.5 hPa | 0 mm | - | - | - |
| 1778030903 | 18.33° C | 51% | 1009.4 hPa | 0 mm | - | - | - |
| 1778030302 | 17.78° C | 52% | 1009.3 hPa | 0 mm | - | - | - |
| 1778029101 | 18.33° C | 49% | 1009 hPa | 0 mm | - | - | - |
| 1778028801 | 19.44° C | 47% | 1009.1 hPa | 0 mm | - | - | - |
| 1778028500 | 18.89° C | 44% | 1009 hPa | 0 mm | - | - | - |
| 1778027899 | 19.44° C | 43% | 1009 hPa | 0 mm | - | - | - |
| 1778026998 | 18.89° C | 43% | 1009.2 hPa | 0 mm | - | - | - |
| 1778026696 | 20° C | 42% | 1009.2 hPa | 0 mm | - | - | - |
| 1778026396 | 19.44° C | 43% | 1009.3 hPa | 0 mm | - | - | - |
| 1778025495 | 20.56° C | 42% | 1009.4 hPa | 0 mm | - | - | - |
| 1778024593 | 20.56° C | 39% | 1009.4 hPa | 0 mm | - | - | - |
| 1778023692 | 22.22° C | 35% | 1009.5 hPa | 0 mm | - | - | - |
| 1778015578 | 21.11° C | 42% | 1010.9 hPa | 0 mm | - | - | - |
| 1778011374 | 23.33° C | 38% | 1011.8 hPa | 0 mm | - | - | - |
| 1778011074 | 23.89° C | 37% | 1011.9 hPa | 0 mm | - | - | - |
| 1778010173 | 21.11° C | 36% | 1012.2 hPa | 0 mm | - | - | - |
| 1778009871 | 21.67° C | 36% | 1012.5 hPa | 0 mm | - | - | - |
| 1778008368 | 21.11° C | 36% | 1012.7 hPa | 0 mm | - | - | - |
| 1778005364 | 22.78° C | 37% | 1013.3 hPa | 0 mm | - | - | - |
| 1778004163 | 21.11° C | 38% | 1013.3 hPa | 0 mm | - | - | - |
| 1778003863 | 21.11° C | 40% | 1013.4 hPa | 0 mm | - | - | - |
| 1778003262 | 22.22° C | 43% | 1013.5 hPa | 0 mm | - | - | - |
| 1778001158 | 21.67° C | 42% | 1013.9 hPa | 0 mm | - | - | - |
| 1778000257 | 21.67° C | 41% | 1014.2 hPa | 0 mm | - | - | - |
* Rain since midnight (hover to see other rain measurements)
** Current wind speed in m/s (hover to see current wind gust speed)